This demonstration page uses our WeatherBlox Daily Observations layout. Learn more.

Left ArrowRight Arrow

Hourly Observations for February 8, 2016

Temp ( °F °C ) Dew Point ( °F °C ) Humidity (%) Winds ( mph kmh ) Pressure ( in mb ) Visibility ( mi km ) Precip ( " mm )
12:59 am 00:59 Cloudy 42 5.6 31 -0.6 65 65 N 20 31 29.68 1005 10 16 0.00 0.00
1:59 am 01:59 Cloudy 41 5 29 -1.7 62 62 NNW 24 39 29.67 1005 10 16 0.00 0.00
2:59 am 02:59 Mostly Cloudy 41 5 27 -2.8 57 57 NNW 18 30 29.68 1005 10 16 0.00 0.00
3:59 am 03:59 Mostly Cloudy 41 5 27 -2.8 57 57 N 13 20 29.70 1006 10 16 0.00 0.00
4:59 am 04:59 Mostly Cloudy 40 4.4 27 -2.8 60 60 NNW 14 22 29.72 1007 10 16 0.00 0.00
5:59 am 05:59 Mostly Cloudy 39 3.9 25 -3.9 57 57 NW 13 20 29.76 1008 10 16 0.00 0.00
6:59 am 06:59 Partly Cloudy 38 3.3 25 -3.9 60 60 NW 13 20 29.77 1008 10 16 0.00 0.00
7:59 am 07:59 Partly Cloudy 38 3.3 26 -3.3 62 62 NW 13 20 29.79 1009 9 14 0.00 0.00
8:59 am 08:59 Mostly Sunny 41 5 27 -2.8 57 57 NNW 13 20 29.79 1009 9 14 0.00 0.00
9:59 am 09:59 Mostly Sunny 44 6.7 29 -1.7 55 55 N 12 19 29.79 1009 9 14 0.00 0.00
10:59 am 10:59 Partly Cloudy 45 7.2 31 -0.6 58 58 N 9 15 29.80 1009 10 16 0.00 0.00
11:59 am 11:59 Partly Cloudy 45 7.2 31 -0.6 58 58 NNE 8 13 29.78 1008 10 16 0.00 0.00
12:59 pm 12:59 Partly Cloudy 46 7.8 31 -0.6 56 56 ENE 7 11 29.74 1007 10 16 0.00 0.00
1:59 pm 13:59 Mostly Cloudy 46 7.8 32 0 58 58 NE 7 11 29.75 1007 10 16 0.00 0.00
2:59 pm 14:59 Cloudy 44 6.7 32 0 63 63 ESE 10 17 29.73 1007 10 16 0.00 0.00
3:59 pm 15:59 Cloudy 43 6.1 33 0.6 68 68 E 9 15 29.74 1007 10 16 0.00 0.00
4:59 pm 16:59 Mostly Cloudy 43 6.1 32 0 65 65 ESE 10 17 29.73 1007 10 16 0.00 0.00
5:59 pm 17:59 Mostly Cloudy 42 5.6 33 0.6 71 71 ESE 9 15 29.74 1007 10 16 0.00 0.00
6:59 pm 18:59 Cloudy 42 5.6 34 1.1 73 73 ESE 9 15 29.73 1007 10 16 0.00 0.00
7:59 pm 19:59 Mostly Cloudy 42 5.6 35 1.7 76 76 ESE 7 11 29.73 1007 10 16 0.00 0.00
8:59 pm 20:59 Mostly Cloudy 42 5.6 36 2.2 79 79 ESE 8 13 29.71 1006 10 16 0.00 0.00
9:59 pm 21:59 Cloudy 43 6.1 36 2.2 76 76 ESE 8 13 29.69 1005 10 16 0.00 0.00
10:59 pm 22:59 Cloudy 43 6.1 37 2.8 80 80 ESE 9 15 29.65 1004 10 16 0.00 0.00
11:59 pm 23:59 Cloudy with Light Rain 43 6.1 38 3.3 82 82 SE 5 7 29.64 1004 6 10 0.01 0.25

Powered by AerisWeather